CDT,Max TemperatureF,Mean TemperatureF,Min TemperatureF,Max Dew PointF,MeanDew PointF,Min DewpointF,Max Humidity, Mean Humidity, Min Humidity, Max Sea Level PressureIn, Mean Sea Level PressureIn, Min Sea Level PressureIn, Max VisibilityMiles, Mean VisibilityMiles, Min VisibilityMiles, Max Wind SpeedMPH, Mean Wind SpeedMPH, Max Gust SpeedMPH,PrecipitationIn, CloudCover, Events, WindDirDegrees
2012-10-1,71,63,55,54,50,45,94,65,38,29.86,29.82,29.78,10,10,10,15,5,20,0.00,0,,1
2012-10-2,71,60,48,50,47,45,94,66,38,29.94,29.91,29.85,10,10,7,12,3,,0.00,0,Rain,318
2012-10-3,75,62,50,54,48,43,87,63,33,30.04,29.98,29.94,10,10,10,14,5,18,0.00,1,,181
2012-10-4,78,66,55,59,54,50,88,67,44,30.18,30.13,30.04,10,10,10,16,9,23,0.00,2,,185
2012-10-5,55,46,35,50,42,36,100,86,71,30.25,30.17,30.13,10,9,3,18,9,25,0.03,6,Rain-Thunderstorm,21
2012-10-6,44,40,35,36,34,30,100,78,61,30.30,30.26,30.23,10,10,10,14,6,17,0.00,6,Rain,9
2012-10-7,50,41,32,34,32,28,100,71,43,30.30,30.25,30.18,10,10,10,7,3,,0.00,1,,341
2012-10-8,59,46,33,37,34,32,100,69,36,30.21,30.14,30.05,10,10,7,15,6,21,0.00,0,,187
2012-10-9,64,53,42,54,45,37,100,75,52,30.08,29.99,29.92,10,10,10,17,9,23,0.00,4,,196
2012-10-10,60,50,39,50,37,32,100,63,34,30.30,30.20,30.09,10,10,10,14,6,20,0.00,1,,49
2012-10-11,68,59,50,61,50,36,88,72,58,30.17,30.13,30.07,10,10,10,13,6,,0.00,8,,147
2012-10-12,69,64,59,63,60,55,100,94,73,30.25,30.16,30.11,10,9,2,20,7,29,2.22,6,Rain-Thunderstorm,130
2012-10-13,73,66,59,64,62,59,100,87,69,30.09,29.94,29.75,10,8,1,25,13,33,1.61,7,Rain-Thunderstorm,164
2012-10-14,69,60,51,61,52,45,94,73,46,30.06,29.88,29.68,10,10,10,21,13,29,0.00,3,,247
2012-10-15,75,62,50,50,47,43,82,61,38,30.06,29.99,29.91,10,10,10,12,6,18,0.00,0,,204
2012-10-16,77,66,55,48,45,39,72,49,27,29.91,29.78,29.64,10,10,10,23,12,28,0.00,1,,191
2012-10-17,69,60,50,61,52,36,94,76,51,29.73,29.58,29.48,10,10,4,22,11,30,0.19,4,Rain,223
2012-10-18,60,50,41,36,32,27,76,48,27,29.82,29.77,29.73,10,10,10,26,10,37,0.00,1,,258
2012-10-19,55,48,42,39,36,32,87,61,44,29.86,29.80,29.71,10,10,10,21,11,29,0.00,4,,281
2012-10-20,77,59,41,50,42,36,87,58,31,29.88,29.83,29.77,10,10,10,12,5,16,0.00,0,,161
2012-10-21,77,67,57,64,57,46,83,72,55,29.89,29.85,29.81,10,10,10,17,10,23,0.00,4,,159
2012-10-22,77,72,62,64,64,59,88,79,65,29.97,29.91,29.86,10,10,3,26,15,33,0.25,3,Rain-Thunderstorm,188
2012-10-23,75,68,60,64,62,59,100,80,69,29.96,29.90,29.86,10,10,1,22,12,39,1.73,6,Rain-Thunderstorm,177
2012-10-24,78,70,62,64,61,59,94,73,57,29.96,29.90,29.80,10,10,10,23,12,31,0.00,1,,175
2012-10-25,71,56,42,63,50,36,100,83,73,30.20,29.95,29.79,10,10,5,24,15,31,0.05,6,Rain,278
2012-10-26,46,40,33,36,32,30,87,73,57,30.36,30.29,30.19,10,10,10,18,12,25,0.00,5,,2
2012-10-27,46,38,30,32,29,28,93,76,50,30.35,30.27,30.20,10,10,7,13,6,16,0.00,0,,12
2012-10-28,50,39,28,32,29,27,93,70,46,30.31,30.25,30.21,10,10,7,8,3,,0.00,0,,23
2012-10-29,55,44,32,32,29,28,87,61,36,30.32,30.23,30.12,10,9,3,9,3,,0.00,2,,109
2012-10-30,60,48,37,37,33,28,75,56,39,30.11,30.01,29.93,10,10,10,7,4,,0.00,2,,117
2012-10-31,60,50,39,36,33,30,76,55,36,30.05,30.01,29.96,10,10,7,9,4,,0.00,1,,22